Volver al catálogo

COSMOS 1275 DEB

ActivoPO
NORAD 12947·DEBRIS·🇷🇺 Russia

Lanzado Jun 4, 1981 desde Plesetsk Cosmodrome

Loading…

Próximos Pases (próximas 24 horas)

TLE

ActualizadoSource: Space-Track

Época: Sep 14, 2026, 04:34 UTC

1 12947U 81053EB  26257.19045146  .00000335  00000-0  48973-3 0  9997
2 12947  83.0913  56.2852 0193183 295.6703 242.5407 13.45124246193092

Sigue COSMOS 1275 DEB en tiempo real con AllMySat

Download on the App Store